This demonstration page uses our WeatherBlox Daily Observations layout. Learn more.

Left ArrowRight Arrow

Hourly Observations for March 9, 2016

Temp ( °F °C ) Dew Point ( °F °C ) Humidity (%) Winds ( mph kmh ) Pressure ( in mb ) Visibility ( mi km ) Precip ( " mm )
12:54 am 00:54 Clear 41 5 36 2.2 82 82 NE 3 6 29.90 1013 10 16 0.00 0.00
1:54 am 01:54 Clear 40 4.4 36 2.2 86 86 Calm 29.91 1013 10 16 0.00 0.00
2:54 am 02:54 Clear 35 1.7 32 0 89 89 Calm 29.93 1014 10 16 0.00 0.00
3:54 am 03:54 Clear 31 -0.6 30 -1.1 96 96 N 7 11 29.91 1013 10 16 0.00 0.00
4:54 am 04:54 Clear 31 -0.6 29 -1.7 92 92 N 5 7 29.90 1013 9 14 0.00 0.00
5:54 am 05:54 Clear 32 0 29 -1.7 88 88 Calm 29.95 1014 10 16 0.00 0.00
6:54 am 06:54 Sunny with Mist and Fog 31 -0.6 29 -1.7 92 92 Calm 30.00 1016 4 6 0.00 0.00
7:54 am 07:54 Sunny 35 1.7 31 -0.6 85 85 NNW 6 9 30.01 1016 10 16 0.00 0.00
8:54 am 08:54 Sunny 41 5 36 2.2 82 82 N 3 6 30.04 1017 10 16 0.00 0.00
9:54 am 09:54 Sunny 47 8.3 38 3.3 71 71 Calm 30.04 1017 10 16 0.00 0.00
10:54 am 10:54 Sunny 50 10 38 3.3 63 63 Calm 30.04 1017 10 16 0.00 0.00
11:54 am 11:54 Sunny 53 11.7 38 3.3 57 57 Calm 30.02 1017 10 16 0.00 0.00
12:54 pm 12:54 Sunny 57 13.9 37 2.8 47 47 VRB 3 6 30.01 1016 10 16 0.00 0.00
1:54 pm 13:54 Sunny 59 15 37 2.8 44 44 SSE 6 9 29.97 1015 10 16 0.00 0.00
2:54 pm 14:54 Sunny 61 16.1 36 2.2 39 39 Calm 29.96 1014 10 16 0.00 0.00
3:54 pm 15:54 Sunny 63 17.2 35 1.7 35 35 ENE 3 6 29.96 1015 10 16 0.00 0.00
4:54 pm 16:54 Sunny 62 16.7 35 1.7 37 37 ESE 6 9 29.96 1015 10 16 0.00 0.00
5:54 pm 17:54 Sunny 60 15.6 36 2.2 41 41 SE 10 17 29.98 1015 10 16 0.00 0.00
6:54 pm 18:54 Clear 55 12.8 36 2.2 49 49 SSE 10 17 30.01 1016 10 16 0.00 0.00
7:54 pm 19:54 Clear 54 12.2 36 2.2 51 51 SE 9 15 30.02 1017 10 16 0.00 0.00
8:54 pm 20:54 Clear 50 10 35 1.7 57 57 SSE 7 11 30.02 1017 10 16 0.00 0.00
9:54 pm 21:54 Clear 45 7.2 34 1.1 66 66 S 7 11 30.05 1018 10 16 0.00 0.00
10:54 pm 22:54 Clear 45 7.2 34 1.1 66 66 S 7 11 30.04 1017 10 16 0.00 0.00
11:54 pm 23:54 Clear 46 7.8 34 1.1 63 63 SSW 3 6 30.06 1018 10 16 0.00 0.00

Powered by AerisWeather